Multibeam Report for HLY1301


Ship Name: Healy
Chief Scientist: Cooper, Lee
University of Maryland Center for Environmental Science
Source Organization: UNOLS R2R
Start Date: 2013-07-29
End Date: 2013-08-15


View ISO Metadata

Visit the full NCEI Bathymetry Viewer


Multibeam Bathymetry

Cruise Details

Project: Chukchi Sea Offshore Monitoring in Drilling Area (COMIDA)-Hanna Shoal Ecosystem Study
Instrument: Kongsberg EM122

Data Quality

Number of Files: 781
Number of Records: 5174607
BATHYMETRY DATA Quantity Percentage
Number of Beams 1489701600 100%
Number of Good Beams 1437137193 96.47%
Number of Zero Beams 0 0%
Number of Flagged Beams 52564407 3.53%

Navigation Totals

Total Time: 379.563 hours
Total Track Length: 4259.5729 km
Average Speed: 11.222 km/hr (6.0594 knots)

Cruise Bounds

Northern Extent: 72.96208
Southern Extent: 53.93587
Western Extent: -168.97781
Eastern Extent: -156.35674

Limits

Minimum Sonar Depth 7.304 Maximum Sonar Depth 8.6092
Minimum Altitude 17.5964 Maximum Altitude 6074.6929
Minimum Depth 21.2078 Maximum Depth 6204.2642

File Information

Full Resolution Bathymetry as collected (raw): 779

Files File Size Description
0000_20130730_003656_HEALY.all.mb58.gz 49.93MB Kongsberg multibeam vendor format
0001_20130730_010648_HEALY.all.mb58.gz 57.60MB Kongsberg multibeam vendor format
0002_20130730_013649_HEALY.all.mb58.gz 36.39MB Kongsberg multibeam vendor format
0003_20130730_020649_HEALY.all.mb58.gz 36.07MB Kongsberg multibeam vendor format
0004_20130730_023648_HEALY.all.mb58.gz 41.71MB Kongsberg multibeam vendor format
0005_20130730_030648_HEALY.all.mb58.gz 44.24MB Kongsberg multibeam vendor format
0006_20130730_033649_HEALY.all.mb58.gz 47.59MB Kongsberg multibeam vendor format
0007_20130730_040650_HEALY.all.mb58.gz 51.68MB Kongsberg multibeam vendor format
0008_20130730_043649_HEALY.all.mb58.gz 58.68MB Kongsberg multibeam vendor format
0009_20130730_050648_HEALY.all.mb58.gz 67.68MB Kongsberg multibeam vendor format
0010_20130730_053649_HEALY.all.mb58.gz 69.91MB Kongsberg multibeam vendor format
0011_20130730_060648_HEALY.all.mb58.gz 70.52MB Kongsberg multibeam vendor format
0012_20130730_063648_HEALY.all.mb58.gz 71.10MB Kongsberg multibeam vendor format
0013_20130730_070648_HEALY.all.mb58.gz 71.58MB Kongsberg multibeam vendor format
0014_20130730_073648_HEALY.all.mb58.gz 71.87MB Kongsberg multibeam vendor format
0015_20130730_080648_HEALY.all.mb58.gz 72.54MB Kongsberg multibeam vendor format
0016_20130730_083648_HEALY.all.mb58.gz 72.94MB Kongsberg multibeam vendor format
0017_20130730_090648_HEALY.all.mb58.gz 72.78MB Kongsberg multibeam vendor format
0018_20130730_093649_HEALY.all.mb58.gz 72.70MB Kongsberg multibeam vendor format
0019_20130730_100648_HEALY.all.mb58.gz 74.28MB Kongsberg multibeam vendor format
0020_20130730_103648_HEALY.all.mb58.gz 75.93MB Kongsberg multibeam vendor format
0021_20130730_110648_HEALY.all.mb58.gz 78.44MB Kongsberg multibeam vendor format
0022_20130730_113648_HEALY.all.mb58.gz 80.63MB Kongsberg multibeam vendor format
0023_20130730_120648_HEALY.all.mb58.gz 82.83MB Kongsberg multibeam vendor format
0024_20130730_123648_HEALY.all.mb58.gz 86.20MB Kongsberg multibeam vendor format
0025_20130730_130648_HEALY.all.mb58.gz 92.32MB Kongsberg multibeam vendor format
0026_20130730_133648_HEALY.all.mb58.gz 92.23MB Kongsberg multibeam vendor format
0027_20130730_140648_HEALY.all.mb58.gz 91.83MB Kongsberg multibeam vendor format
0028_20130730_143648_HEALY.all.mb58.gz 91.85MB Kongsberg multibeam vendor format
0029_20130730_150648_HEALY.all.mb58.gz 91.64MB Kongsberg multibeam vendor format
0030_20130730_153648_HEALY.all.mb58.gz 91.89MB Kongsberg multibeam vendor format
0031_20130730_160648_HEALY.all.mb58.gz 91.62MB Kongsberg multibeam vendor format
0032_20130730_163648_HEALY.all.mb58.gz 91.43MB Kongsberg multibeam vendor format
0033_20130730_170648_HEALY.all.mb58.gz 91.23MB Kongsberg multibeam vendor format
0034_20130730_173648_HEALY.all.mb58.gz 91.46MB Kongsberg multibeam vendor format
0035_20130730_180648_HEALY.all.mb58.gz 91.75MB Kongsberg multibeam vendor format
0036_20130730_183648_HEALY.all.mb58.gz 92.35MB Kongsberg multibeam vendor format
0037_20130730_190648_HEALY.all.mb58.gz 91.65MB Kongsberg multibeam vendor format
0038_20130730_193648_HEALY.all.mb58.gz 91.36MB Kongsberg multibeam vendor format
0039_20130730_200648_HEALY.all.mb58.gz 90.37MB Kongsberg multibeam vendor format
0040_20130730_203648_HEALY.all.mb58.gz 89.52MB Kongsberg multibeam vendor format
0041_20130730_210648_HEALY.all.mb58.gz 89.38MB Kongsberg multibeam vendor format
0042_20130730_213648_HEALY.all.mb58.gz 87.58MB Kongsberg multibeam vendor format
0043_20130730_220648_HEALY.all.mb58.gz 89.25MB Kongsberg multibeam vendor format
0044_20130730_223648_HEALY.all.mb58.gz 93.35MB Kongsberg multibeam vendor format
0045_20130730_230648_HEALY.all.mb58.gz 86.33MB Kongsberg multibeam vendor format
0046_20130730_233648_HEALY.all.mb58.gz 87.36MB Kongsberg multibeam vendor format
0047_20130731_000648_HEALY.all.mb58.gz 92.73MB Kongsberg multibeam vendor format
0048_20130731_003648_HEALY.all.mb58.gz 92.05MB Kongsberg multibeam vendor format
0049_20130731_010648_HEALY.all.mb58.gz 92.27MB Kongsberg multibeam vendor format
0050_20130731_013648_HEALY.all.mb58.gz 91.47MB Kongsberg multibeam vendor format
0051_20130731_020650_HEALY.all.mb58.gz 85.83MB Kongsberg multibeam vendor format
0052_20130731_023650_HEALY.all.mb58.gz 71.53MB Kongsberg multibeam vendor format
0053_20130731_030650_HEALY.all.mb58.gz 103.02MB Kongsberg multibeam vendor format
0054_20130731_033650_HEALY.all.mb58.gz 107.11MB Kongsberg multibeam vendor format
0055_20130731_040650_HEALY.all.mb58.gz 107.42MB Kongsberg multibeam vendor format
0056_20130731_043650_HEALY.all.mb58.gz 106.57MB Kongsberg multibeam vendor format
0057_20130731_050650_HEALY.all.mb58.gz 94.46MB Kongsberg multibeam vendor format
0058_20130731_053650_HEALY.all.mb58.gz 80.54MB Kongsberg multibeam vendor format
0059_20130731_060650_HEALY.all.mb58.gz 104.18MB Kongsberg multibeam vendor format
0060_20130731_063650_HEALY.all.mb58.gz 105.28MB Kongsberg multibeam vendor format
0061_20130731_070649_HEALY.all.mb58.gz 109.15MB Kongsberg multibeam vendor format
0062_20130731_073650_HEALY.all.mb58.gz 99.19MB Kongsberg multibeam vendor format
0063_20130731_080649_HEALY.all.mb58.gz 107.63MB Kongsberg multibeam vendor format
0064_20130731_083650_HEALY.all.mb58.gz 109.69MB Kongsberg multibeam vendor format
0065_20130731_090650_HEALY.all.mb58.gz 108.92MB Kongsberg multibeam vendor format
0066_20130731_093650_HEALY.all.mb58.gz 110.83MB Kongsberg multibeam vendor format
0067_20130731_100650_HEALY.all.mb58.gz 113.33MB Kongsberg multibeam vendor format
0068_20130731_103649_HEALY.all.mb58.gz 115.73MB Kongsberg multibeam vendor format
0069_20130731_110650_HEALY.all.mb58.gz 59.13MB Kongsberg multibeam vendor format
0070_20130731_113650_HEALY.all.mb58.gz 93.00MB Kongsberg multibeam vendor format
0071_20130731_120649_HEALY.all.mb58.gz 68.66MB Kongsberg multibeam vendor format
0072_20130731_123650_HEALY.all.mb58.gz 54.11MB Kongsberg multibeam vendor format
0073_20130731_130650_HEALY.all.mb58.gz 54.64MB Kongsberg multibeam vendor format
0074_20130731_133650_HEALY.all.mb58.gz 54.96MB Kongsberg multibeam vendor format
0075_20130731_140650_HEALY.all.mb58.gz 55.33MB Kongsberg multibeam vendor format
0076_20130731_143650_HEALY.all.mb58.gz 72.14MB Kongsberg multibeam vendor format
0077_20130731_150649_HEALY.all.mb58.gz 112.01MB Kongsberg multibeam vendor format
0078_20130731_153649_HEALY.all.mb58.gz 86.67MB Kongsberg multibeam vendor format
0079_20130731_160649_HEALY.all.mb58.gz 68.88MB Kongsberg multibeam vendor format
0080_20130731_163649_HEALY.all.mb58.gz 117.51MB Kongsberg multibeam vendor format
0081_20130731_170649_HEALY.all.mb58.gz 112.49MB Kongsberg multibeam vendor format
0082_20130731_173649_HEALY.all.mb58.gz 111.88MB Kongsberg multibeam vendor format
0083_20130731_180649_HEALY.all.mb58.gz 95.71MB Kongsberg multibeam vendor format
0084_20130731_183649_HEALY.all.mb58.gz 97.30MB Kongsberg multibeam vendor format
0085_20130731_190649_HEALY.all.mb58.gz 88.84MB Kongsberg multibeam vendor format
0086_20130731_193649_HEALY.all.mb58.gz 90.97MB Kongsberg multibeam vendor format
0087_20130731_200649_HEALY.all.mb58.gz 96.40MB Kongsberg multibeam vendor format
0088_20130731_203649_HEALY.all.mb58.gz 118.27MB Kongsberg multibeam vendor format
0089_20130731_210649_HEALY.all.mb58.gz 123.88MB Kongsberg multibeam vendor format
0090_20130731_213649_HEALY.all.mb58.gz 113.91MB Kongsberg multibeam vendor format
0091_20130731_220649_HEALY.all.mb58.gz 113.12MB Kongsberg multibeam vendor format
0092_20130731_223649_HEALY.all.mb58.gz 112.16MB Kongsberg multibeam vendor format
0093_20130731_230649_HEALY.all.mb58.gz 110.93MB Kongsberg multibeam vendor format
0094_20130731_233649_HEALY.all.mb58.gz 105.21MB Kongsberg multibeam vendor format
0095_20130801_000649_HEALY.all.mb58.gz 85.14MB Kongsberg multibeam vendor format
0096_20130801_003649_HEALY.all.mb58.gz 95.23MB Kongsberg multibeam vendor format
0097_20130801_010649_HEALY.all.mb58.gz 91.54MB Kongsberg multibeam vendor format
0098_20130801_013649_HEALY.all.mb58.gz 92.34MB Kongsberg multibeam vendor format
0099_20130801_020649_HEALY.all.mb58.gz 89.67MB Kongsberg multibeam vendor format
0100_20130801_023649_HEALY.all.mb58.gz 86.82MB Kongsberg multibeam vendor format
0101_20130801_030649_HEALY.all.mb58.gz 84.80MB Kongsberg multibeam vendor format
0102_20130801_033649_HEALY.all.mb58.gz 81.94MB Kongsberg multibeam vendor format
0103_20130801_040649_HEALY.all.mb58.gz 78.75MB Kongsberg multibeam vendor format
0104_20130801_043649_HEALY.all.mb58.gz 76.94MB Kongsberg multibeam vendor format
0105_20130801_050649_HEALY.all.mb58.gz 78.70MB Kongsberg multibeam vendor format
0106_20130801_053649_HEALY.all.mb58.gz 92.33MB Kongsberg multibeam vendor format
0107_20130801_060649_HEALY.all.mb58.gz 91.14MB Kongsberg multibeam vendor format
0108_20130801_063649_HEALY.all.mb58.gz 90.76MB Kongsberg multibeam vendor format
0109_20130801_070649_HEALY.all.mb58.gz 91.17MB Kongsberg multibeam vendor format
0110_20130801_073649_HEALY.all.mb58.gz 93.69MB Kongsberg multibeam vendor format
0111_20130801_080649_HEALY.all.mb58.gz 93.50MB Kongsberg multibeam vendor format
0112_20130801_083649_HEALY.all.mb58.gz 92.62MB Kongsberg multibeam vendor format
0113_20130801_090649_HEALY.all.mb58.gz 91.97MB Kongsberg multibeam vendor format
0114_20130801_093649_HEALY.all.mb58.gz 91.51MB Kongsberg multibeam vendor format
0115_20130801_100649_HEALY.all.mb58.gz 91.78MB Kongsberg multibeam vendor format
0116_20130801_103649_HEALY.all.mb58.gz 91.95MB Kongsberg multibeam vendor format
0117_20130801_110649_HEALY.all.mb58.gz 91.97MB Kongsberg multibeam vendor format
0118_20130801_113649_HEALY.all.mb58.gz 92.24MB Kongsberg multibeam vendor format
0119_20130801_120649_HEALY.all.mb58.gz 92.83MB Kongsberg multibeam vendor format
0120_20130801_123649_HEALY.all.mb58.gz 92.97MB Kongsberg multibeam vendor format
0121_20130801_130649_HEALY.all.mb58.gz 89.47MB Kongsberg multibeam vendor format
0122_20130801_133649_HEALY.all.mb58.gz 87.47MB Kongsberg multibeam vendor format
0123_20130801_140649_HEALY.all.mb58.gz 90.62MB Kongsberg multibeam vendor format
0124_20130801_143649_HEALY.all.mb58.gz 92.36MB Kongsberg multibeam vendor format
0125_20130801_150649_HEALY.all.mb58.gz 93.34MB Kongsberg multibeam vendor format
0126_20130801_153649_HEALY.all.mb58.gz 93.90MB Kongsberg multibeam vendor format
0127_20130801_160649_HEALY.all.mb58.gz 93.91MB Kongsberg multibeam vendor format
0128_20130801_163649_HEALY.all.mb58.gz 94.13MB Kongsberg multibeam vendor format
0129_20130801_170649_HEALY.all.mb58.gz 94.37MB Kongsberg multibeam vendor format
0130_20130801_173649_HEALY.all.mb58.gz 94.93MB Kongsberg multibeam vendor format
0131_20130801_180649_HEALY.all.mb58.gz 96.11MB Kongsberg multibeam vendor format
0132_20130801_183649_HEALY.all.mb58.gz 94.53MB Kongsberg multibeam vendor format
0133_20130801_190649_HEALY.all.mb58.gz 93.85MB Kongsberg multibeam vendor format
0134_20130801_193649_HEALY.all.mb58.gz 93.95MB Kongsberg multibeam vendor format
0135_20130801_200649_HEALY.all.mb58.gz 93.78MB Kongsberg multibeam vendor format
0136_20130801_203649_HEALY.all.mb58.gz 94.07MB Kongsberg multibeam vendor format
0137_20130801_210649_HEALY.all.mb58.gz 96.52MB Kongsberg multibeam vendor format
0138_20130801_213649_HEALY.all.mb58.gz 96.54MB Kongsberg multibeam vendor format
0139_20130801_220649_HEALY.all.mb58.gz 95.86MB Kongsberg multibeam vendor format
0140_20130801_223649_HEALY.all.mb58.gz 95.19MB Kongsberg multibeam vendor format
0141_20130801_230649_HEALY.all.mb58.gz 95.93MB Kongsberg multibeam vendor format
0142_20130801_233649_HEALY.all.mb58.gz 96.97MB Kongsberg multibeam vendor format
0143_20130802_000649_HEALY.all.mb58.gz 96.63MB Kongsberg multibeam vendor format
0144_20130802_003649_HEALY.all.mb58.gz 94.60MB Kongsberg multibeam vendor format
0145_20130802_010649_HEALY.all.mb58.gz 93.05MB Kongsberg multibeam vendor format
0146_20130802_013649_HEALY.all.mb58.gz 92.27MB Kongsberg multibeam vendor format
0147_20130802_020649_HEALY.all.mb58.gz 92.03MB Kongsberg multibeam vendor format
0148_20130802_023649_HEALY.all.mb58.gz 92.04MB Kongsberg multibeam vendor format
0149_20130802_030649_HEALY.all.mb58.gz 92.15MB Kongsberg multibeam vendor format
0150_20130802_033649_HEALY.all.mb58.gz 92.47MB Kongsberg multibeam vendor format
0151_20130802_040649_HEALY.all.mb58.gz 92.19MB Kongsberg multibeam vendor format
0152_20130802_043649_HEALY.all.mb58.gz 91.86MB Kongsberg multibeam vendor format
0153_20130802_050649_HEALY.all.mb58.gz 92.00MB Kongsberg multibeam vendor format
0154_20130802_053649_HEALY.all.mb58.gz 92.33MB Kongsberg multibeam vendor format
0155_20130802_060649_HEALY.all.mb58.gz 92.85MB Kongsberg multibeam vendor format
0156_20130802_063649_HEALY.all.mb58.gz 92.66MB Kongsberg multibeam vendor format
0157_20130802_070649_HEALY.all.mb58.gz 91.26MB Kongsberg multibeam vendor format
0158_20130802_073649_HEALY.all.mb58.gz 89.06MB Kongsberg multibeam vendor format
0159_20130802_080649_HEALY.all.mb58.gz 91.02MB Kongsberg multibeam vendor format
0160_20130802_083649_HEALY.all.mb58.gz 92.40MB Kongsberg multibeam vendor format
0161_20130802_090649_HEALY.all.mb58.gz 91.14MB Kongsberg multibeam vendor format
0162_20130802_093649_HEALY.all.mb58.gz 90.80MB Kongsberg multibeam vendor format
0163_20130802_100649_HEALY.all.mb58.gz 90.84MB Kongsberg multibeam vendor format
0164_20130802_103649_HEALY.all.mb58.gz 91.88MB Kongsberg multibeam vendor format
0165_20130802_110649_HEALY.all.mb58.gz 90.79MB Kongsberg multibeam vendor format
0166_20130802_113649_HEALY.all.mb58.gz 91.15MB Kongsberg multibeam vendor format
0167_20130802_120649_HEALY.all.mb58.gz 89.93MB Kongsberg multibeam vendor format
0168_20130802_123649_HEALY.all.mb58.gz 89.14MB Kongsberg multibeam vendor format
0169_20130802_130649_HEALY.all.mb58.gz 89.03MB Kongsberg multibeam vendor format
0170_20130802_133649_HEALY.all.mb58.gz 90.06MB Kongsberg multibeam vendor format
0171_20130802_140649_HEALY.all.mb58.gz 92.57MB Kongsberg multibeam vendor format
0172_20130802_143649_HEALY.all.mb58.gz 92.90MB Kongsberg multibeam vendor format
0173_20130802_150649_HEALY.all.mb58.gz 92.49MB Kongsberg multibeam vendor format
0174_20130802_153649_HEALY.all.mb58.gz 92.17MB Kongsberg multibeam vendor format
0175_20130802_160649_HEALY.all.mb58.gz 91.97MB Kongsberg multibeam vendor format
0176_20130802_163649_HEALY.all.mb58.gz 93.04MB Kongsberg multibeam vendor format
0177_20130802_170649_HEALY.all.mb58.gz 92.79MB Kongsberg multibeam vendor format
0178_20130802_173649_HEALY.all.mb58.gz 90.78MB Kongsberg multibeam vendor format
0179_20130802_180649_HEALY.all.mb58.gz 87.03MB Kongsberg multibeam vendor format
0180_20130802_183649_HEALY.all.mb58.gz 87.32MB Kongsberg multibeam vendor format
0181_20130802_190649_HEALY.all.mb58.gz 85.25MB Kongsberg multibeam vendor format
0182_20130802_193649_HEALY.all.mb58.gz 87.38MB Kongsberg multibeam vendor format
0183_20130802_200649_HEALY.all.mb58.gz 88.17MB Kongsberg multibeam vendor format
0184_20130802_203649_HEALY.all.mb58.gz 88.71MB Kongsberg multibeam vendor format
0185_20130802_210649_HEALY.all.mb58.gz 88.10MB Kongsberg multibeam vendor format
0186_20130802_213649_HEALY.all.mb58.gz 88.33MB Kongsberg multibeam vendor format
0187_20130802_220649_HEALY.all.mb58.gz 89.95MB Kongsberg multibeam vendor format
0188_20130802_223649_HEALY.all.mb58.gz 88.89MB Kongsberg multibeam vendor format
0189_20130802_230649_HEALY.all.mb58.gz 88.97MB Kongsberg multibeam vendor format
0190_20130802_233649_HEALY.all.mb58.gz 86.95MB Kongsberg multibeam vendor format
0191_20130803_000649_HEALY.all.mb58.gz 84.61MB Kongsberg multibeam vendor format
0192_20130803_003649_HEALY.all.mb58.gz 81.77MB Kongsberg multibeam vendor format
0193_20130803_010649_HEALY.all.mb58.gz 73.18MB Kongsberg multibeam vendor format
0194_20130803_013649_HEALY.all.mb58.gz 64.39MB Kongsberg multibeam vendor format
0195_20130803_020649_HEALY.all.mb58.gz 76.94MB Kongsberg multibeam vendor format
0196_20130803_023649_HEALY.all.mb58.gz 65.34MB Kongsberg multibeam vendor format
0197_20130803_030649_HEALY.all.mb58.gz 74.94MB Kongsberg multibeam vendor format
0198_20130803_033649_HEALY.all.mb58.gz 89.83MB Kongsberg multibeam vendor format
0199_20130803_040649_HEALY.all.mb58.gz 87.58MB Kongsberg multibeam vendor format
0200_20130803_043649_HEALY.all.mb58.gz 87.25MB Kongsberg multibeam vendor format
0201_20130803_050649_HEALY.all.mb58.gz 87.41MB Kongsberg multibeam vendor format
0202_20130803_053649_HEALY.all.mb58.gz 87.78MB Kongsberg multibeam vendor format
0203_20130803_060649_HEALY.all.mb58.gz 87.40MB Kongsberg multibeam vendor format
0204_20130803_063649_HEALY.all.mb58.gz 87.93MB Kongsberg multibeam vendor format
0205_20130803_070649_HEALY.all.mb58.gz 87.96MB Kongsberg multibeam vendor format
0206_20130803_073649_HEALY.all.mb58.gz 88.58MB Kongsberg multibeam vendor format
0207_20130803_080649_HEALY.all.mb58.gz 84.97MB Kongsberg multibeam vendor format
0208_20130803_083648_HEALY.all.mb58.gz 87.53MB Kongsberg multibeam vendor format
0209_20130803_090649_HEALY.all.mb58.gz 87.62MB Kongsberg multibeam vendor format
0210_20130803_093648_HEALY.all.mb58.gz 88.45MB Kongsberg multibeam vendor format
0211_20130803_100649_HEALY.all.mb58.gz 87.87MB Kongsberg multibeam vendor format
0212_20130803_103648_HEALY.all.mb58.gz 88.32MB Kongsberg multibeam vendor format
0213_20130803_110649_HEALY.all.mb58.gz 88.66MB Kongsberg multibeam vendor format
0214_20130803_113648_HEALY.all.mb58.gz 89.77MB Kongsberg multibeam vendor format
0215_20130803_120648_HEALY.all.mb58.gz 88.15MB Kongsberg multibeam vendor format
0216_20130803_123649_HEALY.all.mb58.gz 77.84MB Kongsberg multibeam vendor format
0217_20130803_130648_HEALY.all.mb58.gz 79.29MB Kongsberg multibeam vendor format
0218_20130803_133649_HEALY.all.mb58.gz 46.88MB Kongsberg multibeam vendor format
0219_20130803_140648_HEALY.all.mb58.gz 48.37MB Kongsberg multibeam vendor format
0220_20130803_143648_HEALY.all.mb58.gz 65.69MB Kongsberg multibeam vendor format
0221_20130803_150649_HEALY.all.mb58.gz 45.09MB Kongsberg multibeam vendor format
0222_20130803_153648_HEALY.all.mb58.gz 75.78MB Kongsberg multibeam vendor format
0223_20130803_160648_HEALY.all.mb58.gz 97.12MB Kongsberg multibeam vendor format
0224_20130803_163648_HEALY.all.mb58.gz 96.42MB Kongsberg multibeam vendor format
0225_20130803_170649_HEALY.all.mb58.gz 95.87MB Kongsberg multibeam vendor format
0226_20130803_173648_HEALY.all.mb58.gz 82.03MB Kongsberg multibeam vendor format
0227_20130803_180649_HEALY.all.mb58.gz 54.59MB Kongsberg multibeam vendor format
0228_20130803_183648_HEALY.all.mb58.gz 83.60MB Kongsberg multibeam vendor format
0229_20130803_190649_HEALY.all.mb58.gz 82.43MB Kongsberg multibeam vendor format
0230_20130803_193649_HEALY.all.mb58.gz 85.54MB Kongsberg multibeam vendor format
0231_20130803_200648_HEALY.all.mb58.gz 79.92MB Kongsberg multibeam vendor format
0232_20130803_203648_HEALY.all.mb58.gz 73.77MB Kongsberg multibeam vendor format
0233_20130803_210648_HEALY.all.mb58.gz 73.18MB Kongsberg multibeam vendor format
0234_20130803_213648_HEALY.all.mb58.gz 70.13MB Kongsberg multibeam vendor format
0235_20130803_220648_HEALY.all.mb58.gz 74.52MB Kongsberg multibeam vendor format
0236_20130803_223648_HEALY.all.mb58.gz 74.08MB Kongsberg multibeam vendor format
0237_20130803_230648_HEALY.all.mb58.gz 63.18MB Kongsberg multibeam vendor format
0238_20130803_233648_HEALY.all.mb58.gz 76.76MB Kongsberg multibeam vendor format
0239_20130804_000648_HEALY.all.mb58.gz 76.64MB Kongsberg multibeam vendor format
0240_20130804_003648_HEALY.all.mb58.gz 77.46MB Kongsberg multibeam vendor format
0241_20130804_010648_HEALY.all.mb58.gz 79.00MB Kongsberg multibeam vendor format
0242_20130804_013648_HEALY.all.mb58.gz 79.27MB Kongsberg multibeam vendor format
0243_20130804_020648_HEALY.all.mb58.gz 75.53MB Kongsberg multibeam vendor format
0244_20130804_023648_HEALY.all.mb58.gz 91.61MB Kongsberg multibeam vendor format
0245_20130804_030648_HEALY.all.mb58.gz 96.36MB Kongsberg multibeam vendor format
0246_20130804_033648_HEALY.all.mb58.gz 89.12MB Kongsberg multibeam vendor format
0247_20130804_040648_HEALY.all.mb58.gz 89.48MB Kongsberg multibeam vendor format
0248_20130804_043648_HEALY.all.mb58.gz 91.61MB Kongsberg multibeam vendor format
0249_20130804_050648_HEALY.all.mb58.gz 90.29MB Kongsberg multibeam vendor format
0250_20130804_053648_HEALY.all.mb58.gz 88.74MB Kongsberg multibeam vendor format
0251_20130804_060648_HEALY.all.mb58.gz 89.66MB Kongsberg multibeam vendor format
0252_20130804_063648_HEALY.all.mb58.gz 89.96MB Kongsberg multibeam vendor format
0253_20130804_070648_HEALY.all.mb58.gz 94.57MB Kongsberg multibeam vendor format
0254_20130804_073648_HEALY.all.mb58.gz 92.37MB Kongsberg multibeam vendor format
0255_20130804_080648_HEALY.all.mb58.gz 94.89MB Kongsberg multibeam vendor format
0256_20130804_083648_HEALY.all.mb58.gz 92.44MB Kongsberg multibeam vendor format
0257_20130804_090648_HEALY.all.mb58.gz 94.23MB Kongsberg multibeam vendor format
0258_20130804_093648_HEALY.all.mb58.gz 95.89MB Kongsberg multibeam vendor format
0259_20130804_100648_HEALY.all.mb58.gz 93.67MB Kongsberg multibeam vendor format
0260_20130804_103648_HEALY.all.mb58.gz 90.39MB Kongsberg multibeam vendor format
0261_20130804_110648_HEALY.all.mb58.gz 91.62MB Kongsberg multibeam vendor format
0262_20130804_113648_HEALY.all.mb58.gz 94.22MB Kongsberg multibeam vendor format
0263_20130804_120648_HEALY.all.mb58.gz 94.28MB Kongsberg multibeam vendor format
0264_20130804_123648_HEALY.all.mb58.gz 92.82MB Kongsberg multibeam vendor format
0265_20130804_130648_HEALY.all.mb58.gz 95.26MB Kongsberg multibeam vendor format
0266_20130804_133648_HEALY.all.mb58.gz 94.24MB Kongsberg multibeam vendor format
0267_20130804_140648_HEALY.all.mb58.gz 92.66MB Kongsberg multibeam vendor format
0268_20130804_143648_HEALY.all.mb58.gz 95.35MB Kongsberg multibeam vendor format
0269_20130804_150648_HEALY.all.mb58.gz 91.27MB Kongsberg multibeam vendor format
0270_20130804_153648_HEALY.all.mb58.gz 91.31MB Kongsberg multibeam vendor format
0271_20130804_160648_HEALY.all.mb58.gz 92.59MB Kongsberg multibeam vendor format
0272_20130804_163648_HEALY.all.mb58.gz 90.89MB Kongsberg multibeam vendor format
0273_20130804_170648_HEALY.all.mb58.gz 91.03MB Kongsberg multibeam vendor format
0274_20130804_173648_HEALY.all.mb58.gz 90.82MB Kongsberg multibeam vendor format
0275_20130804_180648_HEALY.all.mb58.gz 90.10MB Kongsberg multibeam vendor format
0276_20130804_183648_HEALY.all.mb58.gz 92.18MB Kongsberg multibeam vendor format
0277_20130804_190648_HEALY.all.mb58.gz 93.61MB Kongsberg multibeam vendor format
0278_20130804_193648_HEALY.all.mb58.gz 92.85MB Kongsberg multibeam vendor format
0279_20130804_200648_HEALY.all.mb58.gz 90.89MB Kongsberg multibeam vendor format
0280_20130804_203648_HEALY.all.mb58.gz 92.67MB Kongsberg multibeam vendor format
0281_20130804_210648_HEALY.all.mb58.gz 93.59MB Kongsberg multibeam vendor format
0282_20130804_213648_HEALY.all.mb58.gz 91.45MB Kongsberg multibeam vendor format
0283_20130804_220648_HEALY.all.mb58.gz 92.59MB Kongsberg multibeam vendor format
0284_20130804_223648_HEALY.all.mb58.gz 89.56MB Kongsberg multibeam vendor format
0285_20130804_230648_HEALY.all.mb58.gz 89.30MB Kongsberg multibeam vendor format
0286_20130804_233648_HEALY.all.mb58.gz 90.98MB Kongsberg multibeam vendor format
0287_20130805_000648_HEALY.all.mb58.gz 90.31MB Kongsberg multibeam vendor format
0288_20130805_003648_HEALY.all.mb58.gz 91.60MB Kongsberg multibeam vendor format
0289_20130805_010648_HEALY.all.mb58.gz 88.96MB Kongsberg multibeam vendor format
0290_20130805_013648_HEALY.all.mb58.gz 91.06MB Kongsberg multibeam vendor format
0291_20130805_020648_HEALY.all.mb58.gz 89.58MB Kongsberg multibeam vendor format
0292_20130805_023648_HEALY.all.mb58.gz 88.64MB Kongsberg multibeam vendor format
0293_20130805_030648_HEALY.all.mb58.gz 88.00MB Kongsberg multibeam vendor format
0294_20130805_033648_HEALY.all.mb58.gz 88.38MB Kongsberg multibeam vendor format
0295_20130805_040648_HEALY.all.mb58.gz 90.91MB Kongsberg multibeam vendor format
0296_20130805_043648_HEALY.all.mb58.gz 90.96MB Kongsberg multibeam vendor format
0297_20130805_050648_HEALY.all.mb58.gz 93.66MB Kongsberg multibeam vendor format
0298_20130805_053648_HEALY.all.mb58.gz 90.59MB Kongsberg multibeam vendor format
0299_20130805_060648_HEALY.all.mb58.gz 92.63MB Kongsberg multibeam vendor format
0300_20130805_063648_HEALY.all.mb58.gz 90.90MB Kongsberg multibeam vendor format
0301_20130805_070648_HEALY.all.mb58.gz 91.76MB Kongsberg multibeam vendor format
0302_20130805_073648_HEALY.all.mb58.gz 90.72MB Kongsberg multibeam vendor format
0303_20130805_080648_HEALY.all.mb58.gz 90.71MB Kongsberg multibeam vendor format
0304_20130805_083648_HEALY.all.mb58.gz 92.11MB Kongsberg multibeam vendor format
0305_20130805_090648_HEALY.all.mb58.gz 90.64MB Kongsberg multibeam vendor format
0306_20130805_093648_HEALY.all.mb58.gz 93.37MB Kongsberg multibeam vendor format
0307_20130805_100648_HEALY.all.mb58.gz 92.67MB Kongsberg multibeam vendor format
0308_20130805_103648_HEALY.all.mb58.gz 91.57MB Kongsberg multibeam vendor format
0309_20130805_110648_HEALY.all.mb58.gz 90.86MB Kongsberg multibeam vendor format
0310_20130805_113648_HEALY.all.mb58.gz 91.26MB Kongsberg multibeam vendor format
0311_20130805_120648_HEALY.all.mb58.gz 90.12MB Kongsberg multibeam vendor format
0312_20130805_123648_HEALY.all.mb58.gz 91.13MB Kongsberg multibeam vendor format
0313_20130805_130648_HEALY.all.mb58.gz 89.50MB Kongsberg multibeam vendor format
0314_20130805_133648_HEALY.all.mb58.gz 92.66MB Kongsberg multibeam vendor format
0315_20130805_140648_HEALY.all.mb58.gz 91.63MB Kongsberg multibeam vendor format
0316_20130805_143648_HEALY.all.mb58.gz 92.76MB Kongsberg multibeam vendor format
0317_20130805_150648_HEALY.all.mb58.gz 91.78MB Kongsberg multibeam vendor format
0318_20130805_153648_HEALY.all.mb58.gz 88.97MB Kongsberg multibeam vendor format
0319_20130805_160648_HEALY.all.mb58.gz 87.69MB Kongsberg multibeam vendor format
0320_20130805_163648_HEALY.all.mb58.gz 88.69MB Kongsberg multibeam vendor format
0321_20130805_170648_HEALY.all.mb58.gz 90.37MB Kongsberg multibeam vendor format
0322_20130805_173648_HEALY.all.mb58.gz 88.76MB Kongsberg multibeam vendor format
0323_20130805_180648_HEALY.all.mb58.gz 89.81MB Kongsberg multibeam vendor format
0324_20130805_183648_HEALY.all.mb58.gz 89.74MB Kongsberg multibeam vendor format
0325_20130805_190648_HEALY.all.mb58.gz 85.67MB Kongsberg multibeam vendor format
0326_20130805_193648_HEALY.all.mb58.gz 90.78MB Kongsberg multibeam vendor format
0327_20130805_200648_HEALY.all.mb58.gz 89.35MB Kongsberg multibeam vendor format
0328_20130805_203648_HEALY.all.mb58.gz 87.83MB Kongsberg multibeam vendor format
0329_20130805_210648_HEALY.all.mb58.gz 87.79MB Kongsberg multibeam vendor format
0330_20130805_213648_HEALY.all.mb58.gz 90.03MB Kongsberg multibeam vendor format
0331_20130805_220648_HEALY.all.mb58.gz 90.28MB Kongsberg multibeam vendor format
0332_20130805_223648_HEALY.all.mb58.gz 90.82MB Kongsberg multibeam vendor format
0333_20130805_230648_HEALY.all.mb58.gz 88.21MB Kongsberg multibeam vendor format
0334_20130805_233648_HEALY.all.mb58.gz 91.34MB Kongsberg multibeam vendor format
0335_20130806_000648_HEALY.all.mb58.gz 90.45MB Kongsberg multibeam vendor format
0336_20130806_003648_HEALY.all.mb58.gz 91.94MB Kongsberg multibeam vendor format
0337_20130806_010648_HEALY.all.mb58.gz 92.18MB Kongsberg multibeam vendor format
0338_20130806_013648_HEALY.all.mb58.gz 91.84MB Kongsberg multibeam vendor format
0339_20130806_020648_HEALY.all.mb58.gz 91.86MB Kongsberg multibeam vendor format
0340_20130806_023648_HEALY.all.mb58.gz 89.60MB Kongsberg multibeam vendor format
0341_20130806_030648_HEALY.all.mb58.gz 88.46MB Kongsberg multibeam vendor format
0342_20130806_033648_HEALY.all.mb58.gz 86.55MB Kongsberg multibeam vendor format
0343_20130806_040648_HEALY.all.mb58.gz 84.58MB Kongsberg multibeam vendor format
0344_20130806_043648_HEALY.all.mb58.gz 84.76MB Kongsberg multibeam vendor format
0345_20130806_050648_HEALY.all.mb58.gz 85.78MB Kongsberg multibeam vendor format
0346_20130806_053648_HEALY.all.mb58.gz 85.37MB Kongsberg multibeam vendor format
0347_20130806_060648_HEALY.all.mb58.gz 84.55MB Kongsberg multibeam vendor format
0348_20130806_063648_HEALY.all.mb58.gz 84.05MB Kongsberg multibeam vendor format
0349_20130806_070648_HEALY.all.mb58.gz 84.27MB Kongsberg multibeam vendor format
0350_20130806_073648_HEALY.all.mb58.gz 85.81MB Kongsberg multibeam vendor format
0351_20130806_080648_HEALY.all.mb58.gz 83.87MB Kongsberg multibeam vendor format
0352_20130806_083648_HEALY.all.mb58.gz 86.91MB Kongsberg multibeam vendor format
0353_20130806_090648_HEALY.all.mb58.gz 88.62MB Kongsberg multibeam vendor format
0354_20130806_093648_HEALY.all.mb58.gz 88.79MB Kongsberg multibeam vendor format
0355_20130806_100648_HEALY.all.mb58.gz 87.79MB Kongsberg multibeam vendor format
0356_20130806_103648_HEALY.all.mb58.gz 90.42MB Kongsberg multibeam vendor format
0357_20130806_110648_HEALY.all.mb58.gz 90.80MB Kongsberg multibeam vendor format
0358_20130806_113648_HEALY.all.mb58.gz 92.19MB Kongsberg multibeam vendor format
0359_20130806_120648_HEALY.all.mb58.gz 88.82MB Kongsberg multibeam vendor format
0360_20130806_123648_HEALY.all.mb58.gz 87.47MB Kongsberg multibeam vendor format
0361_20130806_130648_HEALY.all.mb58.gz 84.73MB Kongsberg multibeam vendor format
0362_20130806_133648_HEALY.all.mb58.gz 90.05MB Kongsberg multibeam vendor format
0363_20130806_140648_HEALY.all.mb58.gz 85.15MB Kongsberg multibeam vendor format
0364_20130806_143648_HEALY.all.mb58.gz 83.89MB Kongsberg multibeam vendor format
0365_20130806_150648_HEALY.all.mb58.gz 85.07MB Kongsberg multibeam vendor format
0366_20130806_153648_HEALY.all.mb58.gz 80.57MB Kongsberg multibeam vendor format
0367_20130806_160648_HEALY.all.mb58.gz 81.25MB Kongsberg multibeam vendor format
0368_20130806_163648_HEALY.all.mb58.gz 80.53MB Kongsberg multibeam vendor format
0369_20130806_170648_HEALY.all.mb58.gz 87.34MB Kongsberg multibeam vendor format
0370_20130806_173648_HEALY.all.mb58.gz 87.28MB Kongsberg multibeam vendor format
0371_20130806_180648_HEALY.all.mb58.gz 88.91MB Kongsberg multibeam vendor format
0372_20130806_183648_HEALY.all.mb58.gz 79.75MB Kongsberg multibeam vendor format
0373_20130806_190648_HEALY.all.mb58.gz 79.05MB Kongsberg multibeam vendor format
0374_20130806_193648_HEALY.all.mb58.gz 80.40MB Kongsberg multibeam vendor format
0375_20130806_200648_HEALY.all.mb58.gz 81.22MB Kongsberg multibeam vendor format
0376_20130806_203648_HEALY.all.mb58.gz 80.56MB Kongsberg multibeam vendor format
0377_20130806_210648_HEALY.all.mb58.gz 78.62MB Kongsberg multibeam vendor format
0378_20130806_213648_HEALY.all.mb58.gz 78.94MB Kongsberg multibeam vendor format
0379_20130806_220648_HEALY.all.mb58.gz 79.00MB Kongsberg multibeam vendor format
0380_20130806_223648_HEALY.all.mb58.gz 79.67MB Kongsberg multibeam vendor format
0381_20130806_230648_HEALY.all.mb58.gz 79.94MB Kongsberg multibeam vendor format
0382_20130806_233648_HEALY.all.mb58.gz 79.20MB Kongsberg multibeam vendor format
0383_20130807_000648_HEALY.all.mb58.gz 79.44MB Kongsberg multibeam vendor format
0384_20130807_003648_HEALY.all.mb58.gz 80.33MB Kongsberg multibeam vendor format
0385_20130807_010648_HEALY.all.mb58.gz 80.29MB Kongsberg multibeam vendor format
0386_20130807_013648_HEALY.all.mb58.gz 80.18MB Kongsberg multibeam vendor format
0387_20130807_020648_HEALY.all.mb58.gz 83.17MB Kongsberg multibeam vendor format
0388_20130807_023648_HEALY.all.mb58.gz 91.92MB Kongsberg multibeam vendor format
0389_20130807_030648_HEALY.all.mb58.gz 87.10MB Kongsberg multibeam vendor format
0390_20130807_033648_HEALY.all.mb58.gz 78.21MB Kongsberg multibeam vendor format
0391_20130807_040648_HEALY.all.mb58.gz 79.68MB Kongsberg multibeam vendor format
0392_20130807_043648_HEALY.all.mb58.gz 77.17MB Kongsberg multibeam vendor format
0393_20130807_050648_HEALY.all.mb58.gz 79.62MB Kongsberg multibeam vendor format
0394_20130807_053648_HEALY.all.mb58.gz 81.03MB Kongsberg multibeam vendor format
0395_20130807_060648_HEALY.all.mb58.gz 82.72MB Kongsberg multibeam vendor format
0396_20130807_063648_HEALY.all.mb58.gz 66.65MB Kongsberg multibeam vendor format
0397_20130807_070648_HEALY.all.mb58.gz 77.80MB Kongsberg multibeam vendor format
0398_20130807_073648_HEALY.all.mb58.gz 76.70MB Kongsberg multibeam vendor format
0399_20130807_080648_HEALY.all.mb58.gz 75.97MB Kongsberg multibeam vendor format
0400_20130807_083648_HEALY.all.mb58.gz 77.69MB Kongsberg multibeam vendor format
0401_20130807_090648_HEALY.all.mb58.gz 90.83MB Kongsberg multibeam vendor format
0402_20130807_093648_HEALY.all.mb58.gz 76.52MB Kongsberg multibeam vendor format
0403_20130807_100648_HEALY.all.mb58.gz 72.15MB Kongsberg multibeam vendor format
0404_20130807_103648_HEALY.all.mb58.gz 77.05MB Kongsberg multibeam vendor format
0405_20130807_110648_HEALY.all.mb58.gz 93.31MB Kongsberg multibeam vendor format
0406_20130807_113648_HEALY.all.mb58.gz 93.92MB Kongsberg multibeam vendor format
0407_20130807_120648_HEALY.all.mb58.gz 94.38MB Kongsberg multibeam vendor format
0408_20130807_123648_HEALY.all.mb58.gz 29.00MB Kongsberg multibeam vendor format
0409_20130807_130648_HEALY.all.mb58.gz 90.85MB Kongsberg multibeam vendor format
0410_20130807_133648_HEALY.all.mb58.gz 91.16MB Kongsberg multibeam vendor format
0411_20130807_140648_HEALY.all.mb58.gz 74.98MB Kongsberg multibeam vendor format
0412_20130807_143648_HEALY.all.mb58.gz 18.65MB Kongsberg multibeam vendor format
0413_20130807_150648_HEALY.all.mb58.gz 42.79MB Kongsberg multibeam vendor format
0414_20130807_153648_HEALY.all.mb58.gz 81.88MB Kongsberg multibeam vendor format
0415_20130807_160648_HEALY.all.mb58.gz 82.02MB Kongsberg multibeam vendor format
0416_20130807_163648_HEALY.all.mb58.gz 82.96MB Kongsberg multibeam vendor format
0417_20130807_170648_HEALY.all.mb58.gz 83.59MB Kongsberg multibeam vendor format
0418_20130807_173648_HEALY.all.mb58.gz 82.05MB Kongsberg multibeam vendor format
0419_20130807_180648_HEALY.all.mb58.gz 82.04MB Kongsberg multibeam vendor format
0420_20130807_183648_HEALY.all.mb58.gz 82.13MB Kongsberg multibeam vendor format
0421_20130807_190648_HEALY.all.mb58.gz 81.62MB Kongsberg multibeam vendor format
0422_20130807_193648_HEALY.all.mb58.gz 87.92MB Kongsberg multibeam vendor format
0423_20130807_200648_HEALY.all.mb58.gz 93.37MB Kongsberg multibeam vendor format
0424_20130807_203648_HEALY.all.mb58.gz 86.47MB Kongsberg multibeam vendor format
0425_20130807_210648_HEALY.all.mb58.gz 74.64MB Kongsberg multibeam vendor format
0426_20130807_213648_HEALY.all.mb58.gz 74.32MB Kongsberg multibeam vendor format
0427_20130807_220648_HEALY.all.mb58.gz 75.56MB Kongsberg multibeam vendor format
0428_20130807_223648_HEALY.all.mb58.gz 75.77MB Kongsberg multibeam vendor format
0429_20130807_230648_HEALY.all.mb58.gz 76.07MB Kongsberg multibeam vendor format
0430_20130807_233648_HEALY.all.mb58.gz 73.98MB Kongsberg multibeam vendor format
0431_20130808_000648_HEALY.all.mb58.gz 78.34MB Kongsberg multibeam vendor format
0432_20130808_003648_HEALY.all.mb58.gz 78.11MB Kongsberg multibeam vendor format
0433_20130808_010648_HEALY.all.mb58.gz 76.42MB Kongsberg multibeam vendor format
0434_20130808_013648_HEALY.all.mb58.gz 75.78MB Kongsberg multibeam vendor format
0435_20130808_020648_HEALY.all.mb58.gz 71.85MB Kongsberg multibeam vendor format
0436_20130808_023648_HEALY.all.mb58.gz 79.00MB Kongsberg multibeam vendor format
0437_20130808_030648_HEALY.all.mb58.gz 75.59MB Kongsberg multibeam vendor format
0438_20130808_033648_HEALY.all.mb58.gz 76.36MB Kongsberg multibeam vendor format
0439_20130808_040648_HEALY.all.mb58.gz 76.95MB Kongsberg multibeam vendor format
0440_20130808_043648_HEALY.all.mb58.gz 76.16MB Kongsberg multibeam vendor format
0441_20130808_050648_HEALY.all.mb58.gz 76.76MB Kongsberg multibeam vendor format
0442_20130808_053648_HEALY.all.mb58.gz 77.37MB Kongsberg multibeam vendor format
0443_20130808_060648_HEALY.all.mb58.gz 78.03MB Kongsberg multibeam vendor format
0444_20130808_063648_HEALY.all.mb58.gz 78.81MB Kongsberg multibeam vendor format
0445_20130808_070648_HEALY.all.mb58.gz 76.72MB Kongsberg multibeam vendor format
0446_20130808_073648_HEALY.all.mb58.gz 76.67MB Kongsberg multibeam vendor format
0447_20130808_080648_HEALY.all.mb58.gz 75.72MB Kongsberg multibeam vendor format
0448_20130808_083648_HEALY.all.mb58.gz 74.04MB Kongsberg multibeam vendor format
0449_20130808_090648_HEALY.all.mb58.gz 77.37MB Kongsberg multibeam vendor format
0450_20130808_093648_HEALY.all.mb58.gz 86.54MB Kongsberg multibeam vendor format
0451_20130808_100648_HEALY.all.mb58.gz 93.88MB Kongsberg multibeam vendor format
0452_20130808_103648_HEALY.all.mb58.gz 90.12MB Kongsberg multibeam vendor format
0453_20130808_110648_HEALY.all.mb58.gz 78.55MB Kongsberg multibeam vendor format
0454_20130808_113648_HEALY.all.mb58.gz 80.30MB Kongsberg multibeam vendor format
0455_20130808_120648_HEALY.all.mb58.gz 87.58MB Kongsberg multibeam vendor format
0456_20130808_123648_HEALY.all.mb58.gz 95.50MB Kongsberg multibeam vendor format
0457_20130808_130648_HEALY.all.mb58.gz 94.51MB Kongsberg multibeam vendor format
0458_20130808_133648_HEALY.all.mb58.gz 93.31MB Kongsberg multibeam vendor format
0459_20130808_140647_HEALY.all.mb58.gz 92.47MB Kongsberg multibeam vendor format
0460_20130808_143648_HEALY.all.mb58.gz 92.72MB Kongsberg multibeam vendor format
0461_20130808_150647_HEALY.all.mb58.gz 91.79MB Kongsberg multibeam vendor format
0462_20130808_153648_HEALY.all.mb58.gz 92.00MB Kongsberg multibeam vendor format
0463_20130808_160647_HEALY.all.mb58.gz 82.93MB Kongsberg multibeam vendor format
0464_20130808_163648_HEALY.all.mb58.gz 87.49MB Kongsberg multibeam vendor format
0465_20130808_170648_HEALY.all.mb58.gz 93.57MB Kongsberg multibeam vendor format
0466_20130808_173647_HEALY.all.mb58.gz 94.13MB Kongsberg multibeam vendor format
0467_20130808_180647_HEALY.all.mb58.gz 91.22MB Kongsberg multibeam vendor format
0468_20130808_183648_HEALY.all.mb58.gz 90.48MB Kongsberg multibeam vendor format
0469_20130808_190648_HEALY.all.mb58.gz 91.25MB Kongsberg multibeam vendor format
0470_20130808_193648_HEALY.all.mb58.gz 85.51MB Kongsberg multibeam vendor format
0471_20130808_200648_HEALY.all.mb58.gz 81.58MB Kongsberg multibeam vendor format
0472_20130808_203648_HEALY.all.mb58.gz 80.08MB Kongsberg multibeam vendor format
0473_20130808_210647_HEALY.all.mb58.gz 77.42MB Kongsberg multibeam vendor format
0474_20130808_213648_HEALY.all.mb58.gz 77.90MB Kongsberg multibeam vendor format
0475_20130808_220647_HEALY.all.mb58.gz 78.83MB Kongsberg multibeam vendor format
0476_20130808_223647_HEALY.all.mb58.gz 79.97MB Kongsberg multibeam vendor format
0477_20130808_230647_HEALY.all.mb58.gz 78.29MB Kongsberg multibeam vendor format
0478_20130808_233648_HEALY.all.mb58.gz 77.81MB Kongsberg multibeam vendor format
0479_20130809_000648_HEALY.all.mb58.gz 78.31MB Kongsberg multibeam vendor format
0480_20130809_003648_HEALY.all.mb58.gz 78.69MB Kongsberg multibeam vendor format
0481_20130809_010647_HEALY.all.mb58.gz 78.66MB Kongsberg multibeam vendor format
0482_20130809_013648_HEALY.all.mb58.gz 79.49MB Kongsberg multibeam vendor format
0483_20130809_020647_HEALY.all.mb58.gz 83.21MB Kongsberg multibeam vendor format
0484_20130809_023648_HEALY.all.mb58.gz 86.46MB Kongsberg multibeam vendor format
0485_20130809_030648_HEALY.all.mb58.gz 97.83MB Kongsberg multibeam vendor format
0486_20130809_033648_HEALY.all.mb58.gz 99.33MB Kongsberg multibeam vendor format
0487_20130809_040648_HEALY.all.mb58.gz 100.17MB Kongsberg multibeam vendor format
0488_20130809_043647_HEALY.all.mb58.gz 95.06MB Kongsberg multibeam vendor format
0489_20130809_050648_HEALY.all.mb58.gz 100.66MB Kongsberg multibeam vendor format
0490_20130809_053648_HEALY.all.mb58.gz 98.89MB Kongsberg multibeam vendor format
0491_20130809_060647_HEALY.all.mb58.gz 99.98MB Kongsberg multibeam vendor format
0492_20130809_063648_HEALY.all.mb58.gz 100.21MB Kongsberg multibeam vendor format
0493_20130809_070648_HEALY.all.mb58.gz 99.88MB Kongsberg multibeam vendor format
0494_20130809_073647_HEALY.all.mb58.gz 99.30MB Kongsberg multibeam vendor format
0495_20130809_080647_HEALY.all.mb58.gz 97.63MB Kongsberg multibeam vendor format
0496_20130809_083647_HEALY.all.mb58.gz 97.36MB Kongsberg multibeam vendor format
0497_20130809_090647_HEALY.all.mb58.gz 87.10MB Kongsberg multibeam vendor format
0498_20130809_092823_HEALY.all.mb58.gz 16.30MB Kongsberg multibeam vendor format
0499_20130809_093145_HEALY.all.mb58.gz 97.99MB Kongsberg multibeam vendor format
0500_20130809_100145_HEALY.all.mb58.gz 98.67MB Kongsberg multibeam vendor format
0501_20130809_103145_HEALY.all.mb58.gz 93.26MB Kongsberg multibeam vendor format
0502_20130809_110145_HEALY.all.mb58.gz 93.14MB Kongsberg multibeam vendor format
0503_20130809_113145_HEALY.all.mb58.gz 94.30MB Kongsberg multibeam vendor format
0504_20130809_120145_HEALY.all.mb58.gz 97.40MB Kongsberg multibeam vendor format
0505_20130809_123145_HEALY.all.mb58.gz 98.80MB Kongsberg multibeam vendor format
0506_20130809_130145_HEALY.all.mb58.gz 97.74MB Kongsberg multibeam vendor format
0507_20130809_133145_HEALY.all.mb58.gz 96.61MB Kongsberg multibeam vendor format
0508_20130809_140145_HEALY.all.mb58.gz 96.92MB Kongsberg multibeam vendor format
0509_20130809_143145_HEALY.all.mb58.gz 98.60MB Kongsberg multibeam vendor format
0510_20130809_150145_HEALY.all.mb58.gz 99.32MB Kongsberg multibeam vendor format
0511_20130809_153145_HEALY.all.mb58.gz 98.89MB Kongsberg multibeam vendor format
0512_20130809_160145_HEALY.all.mb58.gz 96.24MB Kongsberg multibeam vendor format
0513_20130809_163145_HEALY.all.mb58.gz 97.84MB Kongsberg multibeam vendor format
0514_20130809_170145_HEALY.all.mb58.gz 96.89MB Kongsberg multibeam vendor format
0515_20130809_173145_HEALY.all.mb58.gz 96.42MB Kongsberg multibeam vendor format
0516_20130809_180145_HEALY.all.mb58.gz 96.44MB Kongsberg multibeam vendor format
0517_20130809_183145_HEALY.all.mb58.gz 96.74MB Kongsberg multibeam vendor format
0518_20130809_190145_HEALY.all.mb58.gz 96.89MB Kongsberg multibeam vendor format
0519_20130809_193145_HEALY.all.mb58.gz 96.83MB Kongsberg multibeam vendor format
0520_20130809_200145_HEALY.all.mb58.gz 96.98MB Kongsberg multibeam vendor format
0521_20130809_203145_HEALY.all.mb58.gz 97.17MB Kongsberg multibeam vendor format
0522_20130809_210145_HEALY.all.mb58.gz 96.69MB Kongsberg multibeam vendor format
0523_20130809_213145_HEALY.all.mb58.gz 96.33MB Kongsberg multibeam vendor format
0524_20130809_220145_HEALY.all.mb58.gz 96.08MB Kongsberg multibeam vendor format
0525_20130809_223145_HEALY.all.mb58.gz 96.53MB Kongsberg multibeam vendor format
0526_20130809_230145_HEALY.all.mb58.gz 96.56MB Kongsberg multibeam vendor format
0527_20130809_233145_HEALY.all.mb58.gz 95.14MB Kongsberg multibeam vendor format
0528_20130810_000145_HEALY.all.mb58.gz 92.46MB Kongsberg multibeam vendor format
0529_20130810_003145_HEALY.all.mb58.gz 39.98MB Kongsberg multibeam vendor format
0530_20130810_042922_HEALY.all.mb58.gz 76.17MB Kongsberg multibeam vendor format
0531_20130810_045922_HEALY.all.mb58.gz 76.39MB Kongsberg multibeam vendor format
0532_20130810_052922_HEALY.all.mb58.gz 83.92MB Kongsberg multibeam vendor format
0533_20130810_055922_HEALY.all.mb58.gz 41.73MB Kongsberg multibeam vendor format
0534_20130810_061417_HEALY.all.mb58.gz 88.21MB Kongsberg multibeam vendor format
0535_20130810_064417_HEALY.all.mb58.gz 94.54MB Kongsberg multibeam vendor format
0536_20130810_071417_HEALY.all.mb58.gz 91.86MB Kongsberg multibeam vendor format
0537_20130810_074417_HEALY.all.mb58.gz 92.18MB Kongsberg multibeam vendor format
0538_20130810_081417_HEALY.all.mb58.gz 92.19MB Kongsberg multibeam vendor format
0539_20130810_084417_HEALY.all.mb58.gz 93.48MB Kongsberg multibeam vendor format
0540_20130810_091418_HEALY.all.mb58.gz 91.72MB Kongsberg multibeam vendor format
0541_20130810_094417_HEALY.all.mb58.gz 91.21MB Kongsberg multibeam vendor format
0542_20130810_101418_HEALY.all.mb58.gz 90.50MB Kongsberg multibeam vendor format
0543_20130810_104417_HEALY.all.mb58.gz 90.20MB Kongsberg multibeam vendor format
0544_20130810_111417_HEALY.all.mb58.gz 90.79MB Kongsberg multibeam vendor format
0545_20130810_114417_HEALY.all.mb58.gz 90.72MB Kongsberg multibeam vendor format
0546_20130810_121417_HEALY.all.mb58.gz 90.31MB Kongsberg multibeam vendor format
0547_20130810_124417_HEALY.all.mb58.gz 90.23MB Kongsberg multibeam vendor format
0548_20130810_131417_HEALY.all.mb58.gz 90.39MB Kongsberg multibeam vendor format
0549_20130810_134417_HEALY.all.mb58.gz 93.44MB Kongsberg multibeam vendor format
0550_20130810_141417_HEALY.all.mb58.gz 92.81MB Kongsberg multibeam vendor format
0551_20130810_144417_HEALY.all.mb58.gz 91.65MB Kongsberg multibeam vendor format
0552_20130810_151417_HEALY.all.mb58.gz 91.90MB Kongsberg multibeam vendor format
0553_20130810_154417_HEALY.all.mb58.gz 89.94MB Kongsberg multibeam vendor format
0554_20130810_161417_HEALY.all.mb58.gz 91.02MB Kongsberg multibeam vendor format
0555_20130810_164417_HEALY.all.mb58.gz 95.41MB Kongsberg multibeam vendor format
0556_20130810_171417_HEALY.all.mb58.gz 32.83MB Kongsberg multibeam vendor format
0557_20130810_172525_HEALY.all.mb58.gz 92.07MB Kongsberg multibeam vendor format
0558_20130810_175525_HEALY.all.mb58.gz 92.80MB Kongsberg multibeam vendor format
0559_20130810_182525_HEALY.all.mb58.gz 93.89MB Kongsberg multibeam vendor format
0560_20130810_185525_HEALY.all.mb58.gz 93.10MB Kongsberg multibeam vendor format
0561_20130810_192525_HEALY.all.mb58.gz 92.92MB Kongsberg multibeam vendor format
0562_20130810_195525_HEALY.all.mb58.gz 92.09MB Kongsberg multibeam vendor format
0563_20130810_202525_HEALY.all.mb58.gz 91.95MB Kongsberg multibeam vendor format
0564_20130810_205525_HEALY.all.mb58.gz 91.92MB Kongsberg multibeam vendor format
0565_20130810_212525_HEALY.all.mb58.gz 92.69MB Kongsberg multibeam vendor format
0566_20130810_215525_HEALY.all.mb58.gz 88.61MB Kongsberg multibeam vendor format
0567_20130810_222525_HEALY.all.mb58.gz 91.13MB Kongsberg multibeam vendor format
0568_20130810_225525_HEALY.all.mb58.gz 84.55MB Kongsberg multibeam vendor format
0569_20130810_232525_HEALY.all.mb58.gz 71.61MB Kongsberg multibeam vendor format
0570_20130810_235525_HEALY.all.mb58.gz 88.57MB Kongsberg multibeam vendor format
0571_20130811_002525_HEALY.all.mb58.gz 88.63MB Kongsberg multibeam vendor format
0572_20130811_005525_HEALY.all.mb58.gz 87.62MB Kongsberg multibeam vendor format
0573_20130811_012525_HEALY.all.mb58.gz 87.40MB Kongsberg multibeam vendor format
0574_20130811_015525_HEALY.all.mb58.gz 87.79MB Kongsberg multibeam vendor format
0575_20130811_022525_HEALY.all.mb58.gz 87.55MB Kongsberg multibeam vendor format
0576_20130811_025525_HEALY.all.mb58.gz 87.44MB Kongsberg multibeam vendor format
0577_20130811_032525_HEALY.all.mb58.gz 9.40MB Kongsberg multibeam vendor format
0578_20130811_033004_HEALY.all.mb58.gz 77.70MB Kongsberg multibeam vendor format
0579_20130811_040001_HEALY.all.mb58.gz 77.82MB Kongsberg multibeam vendor format
0580_20130811_043001_HEALY.all.mb58.gz 79.40MB Kongsberg multibeam vendor format
0581_20130811_050001_HEALY.all.mb58.gz 80.02MB Kongsberg multibeam vendor format
0582_20130811_053001_HEALY.all.mb58.gz 79.56MB Kongsberg multibeam vendor format
0583_20130811_060001_HEALY.all.mb58.gz 91.15MB Kongsberg multibeam vendor format
0584_20130811_063001_HEALY.all.mb58.gz 87.25MB Kongsberg multibeam vendor format
0585_20130811_070001_HEALY.all.mb58.gz 87.74MB Kongsberg multibeam vendor format
0586_20130811_073001_HEALY.all.mb58.gz 87.46MB Kongsberg multibeam vendor format
0587_20130811_080001_HEALY.all.mb58.gz 85.45MB Kongsberg multibeam vendor format
0588_20130811_083001_HEALY.all.mb58.gz 84.00MB Kongsberg multibeam vendor format
0589_20130811_090001_HEALY.all.mb58.gz 84.13MB Kongsberg multibeam vendor format
0590_20130811_093001_HEALY.all.mb58.gz 84.30MB Kongsberg multibeam vendor format
0591_20130811_100001_HEALY.all.mb58.gz 80.78MB Kongsberg multibeam vendor format
0592_20130811_103001_HEALY.all.mb58.gz 79.58MB Kongsberg multibeam vendor format
0593_20130811_110001_HEALY.all.mb58.gz 79.73MB Kongsberg multibeam vendor format
0594_20130811_113001_HEALY.all.mb58.gz 79.73MB Kongsberg multibeam vendor format
0595_20130811_120001_HEALY.all.mb58.gz 78.46MB Kongsberg multibeam vendor format
0596_20130811_123001_HEALY.all.mb58.gz 78.52MB Kongsberg multibeam vendor format
0597_20130811_130001_HEALY.all.mb58.gz 79.66MB Kongsberg multibeam vendor format
0598_20130811_133001_HEALY.all.mb58.gz 79.23MB Kongsberg multibeam vendor format
0599_20130811_140001_HEALY.all.mb58.gz 77.80MB Kongsberg multibeam vendor format
0600_20130811_143001_HEALY.all.mb58.gz 77.17MB Kongsberg multibeam vendor format
0601_20130811_150001_HEALY.all.mb58.gz 77.87MB Kongsberg multibeam vendor format
0602_20130811_153001_HEALY.all.mb58.gz 76.39MB Kongsberg multibeam vendor format
0603_20130811_160001_HEALY.all.mb58.gz 75.84MB Kongsberg multibeam vendor format
0604_20130811_163001_HEALY.all.mb58.gz 75.29MB Kongsberg multibeam vendor format
0605_20130811_170001_HEALY.all.mb58.gz 75.55MB Kongsberg multibeam vendor format
0606_20130811_173001_HEALY.all.mb58.gz 77.61MB Kongsberg multibeam vendor format
0607_20130811_180001_HEALY.all.mb58.gz 79.43MB Kongsberg multibeam vendor format
0608_20130811_183001_HEALY.all.mb58.gz 81.13MB Kongsberg multibeam vendor format
0609_20130811_190001_HEALY.all.mb58.gz 82.89MB Kongsberg multibeam vendor format
0610_20130811_193001_HEALY.all.mb58.gz 81.82MB Kongsberg multibeam vendor format
0611_20130811_200001_HEALY.all.mb58.gz 81.71MB Kongsberg multibeam vendor format
0612_20130811_203001_HEALY.all.mb58.gz 83.51MB Kongsberg multibeam vendor format
0613_20130811_210001_HEALY.all.mb58.gz 82.01MB Kongsberg multibeam vendor format
0614_20130811_213001_HEALY.all.mb58.gz 83.05MB Kongsberg multibeam vendor format
0615_20130811_220001_HEALY.all.mb58.gz 80.90MB Kongsberg multibeam vendor format
0616_20130811_223001_HEALY.all.mb58.gz 79.86MB Kongsberg multibeam vendor format
0617_20130811_230001_HEALY.all.mb58.gz 79.34MB Kongsberg multibeam vendor format
0618_20130811_233001_HEALY.all.mb58.gz 82.23MB Kongsberg multibeam vendor format
0619_20130812_000001_HEALY.all.mb58.gz 83.90MB Kongsberg multibeam vendor format
0620_20130812_003001_HEALY.all.mb58.gz 81.56MB Kongsberg multibeam vendor format
0621_20130812_010001_HEALY.all.mb58.gz 79.22MB Kongsberg multibeam vendor format
0622_20130812_013001_HEALY.all.mb58.gz 77.66MB Kongsberg multibeam vendor format
0623_20130812_020001_HEALY.all.mb58.gz 76.84MB Kongsberg multibeam vendor format
0624_20130812_023001_HEALY.all.mb58.gz 73.72MB Kongsberg multibeam vendor format
0625_20130812_030001_HEALY.all.mb58.gz 77.29MB Kongsberg multibeam vendor format
0626_20130812_033001_HEALY.all.mb58.gz 76.97MB Kongsberg multibeam vendor format
0627_20130812_040001_HEALY.all.mb58.gz 76.14MB Kongsberg multibeam vendor format
0628_20130812_043001_HEALY.all.mb58.gz 74.99MB Kongsberg multibeam vendor format
0629_20130812_050001_HEALY.all.mb58.gz 75.91MB Kongsberg multibeam vendor format
0630_20130812_053001_HEALY.all.mb58.gz 76.15MB Kongsberg multibeam vendor format
0631_20130812_060001_HEALY.all.mb58.gz 77.22MB Kongsberg multibeam vendor format
0632_20130812_063001_HEALY.all.mb58.gz 76.71MB Kongsberg multibeam vendor format
0633_20130812_070001_HEALY.all.mb58.gz 77.32MB Kongsberg multibeam vendor format
0634_20130812_073001_HEALY.all.mb58.gz 72.19MB Kongsberg multibeam vendor format
0635_20130812_080001_HEALY.all.mb58.gz 78.15MB Kongsberg multibeam vendor format
0636_20130812_083001_HEALY.all.mb58.gz 79.58MB Kongsberg multibeam vendor format
0637_20130812_090001_HEALY.all.mb58.gz 79.32MB Kongsberg multibeam vendor format
0638_20130812_093001_HEALY.all.mb58.gz 83.04MB Kongsberg multibeam vendor format
0639_20130812_100001_HEALY.all.mb58.gz 86.52MB Kongsberg multibeam vendor format
0640_20130812_103001_HEALY.all.mb58.gz 86.91MB Kongsberg multibeam vendor format
0641_20130812_110001_HEALY.all.mb58.gz 89.57MB Kongsberg multibeam vendor format
0642_20130812_113001_HEALY.all.mb58.gz 89.62MB Kongsberg multibeam vendor format
0643_20130812_120001_HEALY.all.mb58.gz 90.46MB Kongsberg multibeam vendor format
0644_20130812_123001_HEALY.all.mb58.gz 91.86MB Kongsberg multibeam vendor format
0645_20130812_130001_HEALY.all.mb58.gz 92.46MB Kongsberg multibeam vendor format
0646_20130812_133001_HEALY.all.mb58.gz 90.22MB Kongsberg multibeam vendor format
0647_20130812_140000_HEALY.all.mb58.gz 91.21MB Kongsberg multibeam vendor format
0648_20130812_143001_HEALY.all.mb58.gz 94.06MB Kongsberg multibeam vendor format
0649_20130812_150000_HEALY.all.mb58.gz 97.39MB Kongsberg multibeam vendor format
0650_20130812_153001_HEALY.all.mb58.gz 100.54MB Kongsberg multibeam vendor format
0651_20130812_160000_HEALY.all.mb58.gz 101.76MB Kongsberg multibeam vendor format
0652_20130812_163000_HEALY.all.mb58.gz 100.80MB Kongsberg multibeam vendor format
0653_20130812_170000_HEALY.all.mb58.gz 100.63MB Kongsberg multibeam vendor format
0654_20130812_173001_HEALY.all.mb58.gz 100.23MB Kongsberg multibeam vendor format
0655_20130812_180000_HEALY.all.mb58.gz 98.66MB Kongsberg multibeam vendor format
0656_20130812_183001_HEALY.all.mb58.gz 101.12MB Kongsberg multibeam vendor format
0657_20130812_190000_HEALY.all.mb58.gz 98.55MB Kongsberg multibeam vendor format
0658_20130812_193001_HEALY.all.mb58.gz 100.82MB Kongsberg multibeam vendor format
0659_20130812_200000_HEALY.all.mb58.gz 105.42MB Kongsberg multibeam vendor format
0660_20130812_203001_HEALY.all.mb58.gz 96.50MB Kongsberg multibeam vendor format
0661_20130812_210001_HEALY.all.mb58.gz 92.75MB Kongsberg multibeam vendor format
0662_20130812_213001_HEALY.all.mb58.gz 98.56MB Kongsberg multibeam vendor format
0663_20130812_220001_HEALY.all.mb58.gz 93.08MB Kongsberg multibeam vendor format
0664_20130812_223000_HEALY.all.mb58.gz 92.58MB Kongsberg multibeam vendor format
0665_20130812_230000_HEALY.all.mb58.gz 91.99MB Kongsberg multibeam vendor format
0666_20130812_233000_HEALY.all.mb58.gz 92.46MB Kongsberg multibeam vendor format
0667_20130813_000000_HEALY.all.mb58.gz 92.03MB Kongsberg multibeam vendor format
0668_20130813_003001_HEALY.all.mb58.gz 94.35MB Kongsberg multibeam vendor format
0669_20130813_010000_HEALY.all.mb58.gz 91.24MB Kongsberg multibeam vendor format
0670_20130813_013000_HEALY.all.mb58.gz 93.23MB Kongsberg multibeam vendor format
0671_20130813_020000_HEALY.all.mb58.gz 92.81MB Kongsberg multibeam vendor format
0672_20130813_023000_HEALY.all.mb58.gz 88.37MB Kongsberg multibeam vendor format
0673_20130813_030000_HEALY.all.mb58.gz 90.15MB Kongsberg multibeam vendor format
0674_20130813_033000_HEALY.all.mb58.gz 88.75MB Kongsberg multibeam vendor format
0675_20130813_040001_HEALY.all.mb58.gz 90.63MB Kongsberg multibeam vendor format
0676_20130813_043000_HEALY.all.mb58.gz 90.38MB Kongsberg multibeam vendor format
0677_20130813_050000_HEALY.all.mb58.gz 89.48MB Kongsberg multibeam vendor format
0678_20130813_053000_HEALY.all.mb58.gz 87.36MB Kongsberg multibeam vendor format
0679_20130813_060000_HEALY.all.mb58.gz 89.02MB Kongsberg multibeam vendor format
0680_20130813_063000_HEALY.all.mb58.gz 87.97MB Kongsberg multibeam vendor format
0681_20130813_070000_HEALY.all.mb58.gz 85.26MB Kongsberg multibeam vendor format
0682_20130813_073000_HEALY.all.mb58.gz 85.16MB Kongsberg multibeam vendor format
0683_20130813_080000_HEALY.all.mb58.gz 81.35MB Kongsberg multibeam vendor format
0684_20130813_083000_HEALY.all.mb58.gz 78.67MB Kongsberg multibeam vendor format
0685_20130813_090000_HEALY.all.mb58.gz 79.95MB Kongsberg multibeam vendor format
0686_20130813_093000_HEALY.all.mb58.gz 77.20MB Kongsberg multibeam vendor format
0687_20130813_100000_HEALY.all.mb58.gz 75.45MB Kongsberg multibeam vendor format
0688_20130813_103000_HEALY.all.mb58.gz 75.46MB Kongsberg multibeam vendor format
0689_20130813_110000_HEALY.all.mb58.gz 74.97MB Kongsberg multibeam vendor format
0690_20130813_113001_HEALY.all.mb58.gz 74.47MB Kongsberg multibeam vendor format
0691_20130813_120000_HEALY.all.mb58.gz 72.40MB Kongsberg multibeam vendor format
0692_20130813_123001_HEALY.all.mb58.gz 72.33MB Kongsberg multibeam vendor format
0693_20130813_130000_HEALY.all.mb58.gz 84.31MB Kongsberg multibeam vendor format
0694_20130813_133000_HEALY.all.mb58.gz 92.40MB Kongsberg multibeam vendor format
0695_20130813_140000_HEALY.all.mb58.gz 92.44MB Kongsberg multibeam vendor format
0696_20130813_143001_HEALY.all.mb58.gz 91.72MB Kongsberg multibeam vendor format
0697_20130813_150000_HEALY.all.mb58.gz 92.04MB Kongsberg multibeam vendor format
0698_20130813_153000_HEALY.all.mb58.gz 92.34MB Kongsberg multibeam vendor format
0699_20130813_160000_HEALY.all.mb58.gz 92.19MB Kongsberg multibeam vendor format
0700_20130813_163000_HEALY.all.mb58.gz 92.76MB Kongsberg multibeam vendor format
0701_20130813_170000_HEALY.all.mb58.gz 92.57MB Kongsberg multibeam vendor format
0702_20130813_173000_HEALY.all.mb58.gz 92.14MB Kongsberg multibeam vendor format
0703_20130813_180000_HEALY.all.mb58.gz 92.54MB Kongsberg multibeam vendor format
0704_20130813_183000_HEALY.all.mb58.gz 92.83MB Kongsberg multibeam vendor format
0705_20130813_190000_HEALY.all.mb58.gz 93.03MB Kongsberg multibeam vendor format
0706_20130813_193000_HEALY.all.mb58.gz 88.65MB Kongsberg multibeam vendor format
0707_20130813_200000_HEALY.all.mb58.gz 89.44MB Kongsberg multibeam vendor format
0708_20130813_203000_HEALY.all.mb58.gz 56.72MB Kongsberg multibeam vendor format
0709_20130813_204858_HEALY.all.mb58.gz 96.35MB Kongsberg multibeam vendor format
0710_20130813_211858_HEALY.all.mb58.gz 95.97MB Kongsberg multibeam vendor format
0711_20130813_214858_HEALY.all.mb58.gz 97.47MB Kongsberg multibeam vendor format
0712_20130813_221858_HEALY.all.mb58.gz 94.89MB Kongsberg multibeam vendor format
0713_20130813_224858_HEALY.all.mb58.gz 79.57MB Kongsberg multibeam vendor format
0714_20130813_231858_HEALY.all.mb58.gz 78.52MB Kongsberg multibeam vendor format
0715_20130813_234858_HEALY.all.mb58.gz 70.05MB Kongsberg multibeam vendor format
0716_20130814_001858_HEALY.all.mb58.gz 68.75MB Kongsberg multibeam vendor format
0717_20130814_004858_HEALY.all.mb58.gz 66.03MB Kongsberg multibeam vendor format
0718_20130814_011858_HEALY.all.mb58.gz 62.25MB Kongsberg multibeam vendor format
0719_20130814_014858_HEALY.all.mb58.gz 60.98MB Kongsberg multibeam vendor format
0720_20130814_021859_HEALY.all.mb58.gz 54.62MB Kongsberg multibeam vendor format
0721_20130814_024858_HEALY.all.mb58.gz 55.54MB Kongsberg multibeam vendor format
0722_20130814_031859_HEALY.all.mb58.gz 53.49MB Kongsberg multibeam vendor format
0723_20130814_034858_HEALY.all.mb58.gz 50.98MB Kongsberg multibeam vendor format
0724_20130814_041859_HEALY.all.mb58.gz 48.95MB Kongsberg multibeam vendor format
0725_20130814_044858_HEALY.all.mb58.gz 47.12MB Kongsberg multibeam vendor format
0726_20130814_051858_HEALY.all.mb58.gz 46.80MB Kongsberg multibeam vendor format
0727_20130814_054859_HEALY.all.mb58.gz 44.54MB Kongsberg multibeam vendor format
0728_20130814_061859_HEALY.all.mb58.gz 42.39MB Kongsberg multibeam vendor format
0729_20130814_064858_HEALY.all.mb58.gz 35.88MB Kongsberg multibeam vendor format
0730_20130814_071859_HEALY.all.mb58.gz 35.15MB Kongsberg multibeam vendor format
0731_20130814_074858_HEALY.all.mb58.gz 34.70MB Kongsberg multibeam vendor format
0732_20130814_081900_HEALY.all.mb58.gz 32.20MB Kongsberg multibeam vendor format
0733_20130814_084901_HEALY.all.mb58.gz 31.56MB Kongsberg multibeam vendor format
0734_20130814_091903_HEALY.all.mb58.gz 26.53MB Kongsberg multibeam vendor format
0735_20130814_094859_HEALY.all.mb58.gz 25.17MB Kongsberg multibeam vendor format
0736_20130814_101904_HEALY.all.mb58.gz 25.12MB Kongsberg multibeam vendor format
0737_20130814_104903_HEALY.all.mb58.gz 25.34MB Kongsberg multibeam vendor format
0738_20130814_111903_HEALY.all.mb58.gz 25.33MB Kongsberg multibeam vendor format
0739_20130814_114858_HEALY.all.mb58.gz 24.17MB Kongsberg multibeam vendor format
0740_20130814_121831_HEALY.all.mb58.gz 0.73MB Kongsberg multibeam vendor format
0741_20130814_122306_HEALY.all.mb58.gz 1.29MB Kongsberg multibeam vendor format
0742_20130814_122547_HEALY.all.mb58.gz 3.00MB Kongsberg multibeam vendor format
0743_20130814_123758_HEALY.all.mb58.gz 147.2KB Kongsberg multibeam vendor format
0744_20130814_124220_HEALY.all.mb58.gz 1.37MB Kongsberg multibeam vendor format
0745_20130814_125924_HEALY.all.mb58.gz 12.90MB Kongsberg multibeam vendor format
0747_20130814_132042_HEALY.all.mb58.gz 267.1KB Kongsberg multibeam vendor format
0749_20130814_132108_HEALY.all.mb58.gz 220.6KB Kongsberg multibeam vendor format
0751_20130814_132633_HEALY.all.mb58.gz 0.69MB Kongsberg multibeam vendor format
0752_20130814_133335_HEALY.all.mb58.gz 0.69MB Kongsberg multibeam vendor format
0753_20130814_133505_HEALY.all.mb58.gz 1.18MB Kongsberg multibeam vendor format
0754_20130814_134610_HEALY.all.mb58.gz 18.98MB Kongsberg multibeam vendor format
0755_20130814_140812_HEALY.all.mb58.gz 25.02MB Kongsberg multibeam vendor format
0756_20130814_143803_HEALY.all.mb58.gz 23.44MB Kongsberg multibeam vendor format
0757_20130814_150803_HEALY.all.mb58.gz 81.81MB Kongsberg multibeam vendor format
0758_20130814_153803_HEALY.all.mb58.gz 94.73MB Kongsberg multibeam vendor format
0759_20130814_160803_HEALY.all.mb58.gz 94.41MB Kongsberg multibeam vendor format
0760_20130814_163803_HEALY.all.mb58.gz 94.01MB Kongsberg multibeam vendor format
0761_20130814_170803_HEALY.all.mb58.gz 96.95MB Kongsberg multibeam vendor format
0762_20130814_173803_HEALY.all.mb58.gz 96.12MB Kongsberg multibeam vendor format
0763_20130814_180803_HEALY.all.mb58.gz 98.79MB Kongsberg multibeam vendor format
0764_20130814_183803_HEALY.all.mb58.gz 98.32MB Kongsberg multibeam vendor format
0765_20130814_190803_HEALY.all.mb58.gz 98.13MB Kongsberg multibeam vendor format
0766_20130814_193802_HEALY.all.mb58.gz 100.00MB Kongsberg multibeam vendor format
0767_20130814_200803_HEALY.all.mb58.gz 100.03MB Kongsberg multibeam vendor format
0768_20130814_203803_HEALY.all.mb58.gz 100.06MB Kongsberg multibeam vendor format
0769_20130814_210803_HEALY.all.mb58.gz 96.00MB Kongsberg multibeam vendor format
0770_20130814_213803_HEALY.all.mb58.gz 84.94MB Kongsberg multibeam vendor format
0771_20130814_220803_HEALY.all.mb58.gz 79.15MB Kongsberg multibeam vendor format
0772_20130814_223803_HEALY.all.mb58.gz 76.63MB Kongsberg multibeam vendor format
0773_20130814_230803_HEALY.all.mb58.gz 80.24MB Kongsberg multibeam vendor format
0774_20130814_233803_HEALY.all.mb58.gz 87.12MB Kongsberg multibeam vendor format
0775_20130815_000803_HEALY.all.mb58.gz 92.80MB Kongsberg multibeam vendor format
0776_20130815_003803_HEALY.all.mb58.gz 93.83MB Kongsberg multibeam vendor format
0777_20130815_010802_HEALY.all.mb58.gz 92.57MB Kongsberg multibeam vendor format
0778_20130815_013803_HEALY.all.mb58.gz 92.90MB Kongsberg multibeam vendor format
0779_20130815_020803_HEALY.all.mb58.gz 92.78MB Kongsberg multibeam vendor format
0780_20130815_023803_HEALY.all.mb58.gz 17.72MB Kongsberg multibeam vendor format
9999.all.mb58.gz 7.0KB Kongsberg multibeam vendor format

Metadata Files: 1

Files File Size Description
HLY1301_Multibeam.xml NGDC created ISO metadata

Water Column Sonar Data

Water Column Sonar Data Available: WCSD Map Viewer